Lid_Strength_Index
3 3 3 3 3 3 2 2 2 2 2 2 2 2 2 2 3 3 5 2 2 -1 -1 0 1 1 1 3 3 3 10 12 11 10 9 7 8 5 4 5 5 4 4 3 1
3 3 3 3 3 3 3 3 2 2 2 2 2 2 2 2 3 4 -1 -3 -4 -2 1 2 3 2 4 4 4 6 10 10 7 7 8 7 7 6 6 6 6 5 3 2 1
3 3 3 4 3 3 3 3 3 3 3 3 2 2 2 2 3 4 -3 -3 -2 -1 0 2 2 3 5 4 6 6 10 7 6 6 6 7 8 6 7 7 6 6 4 3 2
3 3 3 3 3 3 3 3 3 3 3 3 3 2 2 2 7 1 -3 -3 -3 -1 0 3 3 5 6 7 6 9 6 6 5 5 6 7 5 7 6 6 4 4 3 3 3
4 3 3 3 3 3 3 3 3 3 3 3 3 2 2 5 5 -1 -2 -2 0 0 2 2 3 4 6 5 6 7 6 5 5 5 5 5 6 7 7 5 3 3 3 3 3
5 4 4 3 3 3 3 3 4 4 4 3 3 2 4 7 1 -1 1 2 1 1 2 2 3 3 4 5 6 6 6 6 5 5 5 6 6 6 6 4 4 4 3 3 3
4 4 4 4 4 4 4 4 4 3 3 3 2 2 4 5 0 -0 1 2 0 1 2 1 1 3 3 5 4 5 7 6 5 5 6 5 9 8 5 4 5 4 4 3 3
4 4 4 4 4 4 4 5 4 2 2 2 2 2 4 2 -0 0 -0 1 0 -0 1 1 1 2 3 3 5 7 7 9 6 5 5 6 12 7 5 5 5 5 4 3 3
4 4 4 4 4 5 5 5 4 3 2 2 1 2 5 -0 2 0 -0 2 1 1 1 1 2 3 4 6 8 7 10 9 8 5 6 7 10 6 5 5 6 5 4 4 3
3 3 4 4 4 4 5 5 3 2 1 0 1 4 3 4 2 1 -0 1 2 2 3 3 3 5 5 7 10 9 9 8 9 7 6 8 11 7 6 6 6 6 5 4 4
3 2 3 3 4 4 4 1 3 4 3 4 5 5 4 2 1 2 1 2 3 3 6 4 6 8 6 6 6 6 7 9 7 6 7 8 9 7 6 6 6 7 6 5 4
2 2 2 3 3 4 2 3 4 3 5 3 4 4 3 1 4 2 1 4 4 6 5 6 7 5 5 5 6 6 7 8 7 6 7 7 7 7 6 6 6 6 6 5 4
2 2 3 3 3 3 1 3 1 2 5 5 4 4 3 2 4 4 2 3 5 6 6 7 6 5 5 6 7 7 8 8 8 7 6 7 8 8 6 5 6 6 5 5 4
2 2 2 3 5 0 2 1 0 1 7 7 5 4 3 3 4 2 2 3 5 6 6 6 5 6 6 7 7 9 6 6 8 8 11 7 12 9 7 7 7 7 6 5 4
2 2 2 3 1 1 1 -1 -0 1 13 6 5 2 2 4 4 4 1 3 6 6 5 7 6 6 7 7 6 7 5 7 7 8 8 9 10 12 8 9 8 7 6 5 4
2 2 2 1 -0 -0 -1 -1 1 8 13 8 5 5 5 4 4 3 4 2 3 5 5 6 4 5 6 5 5 6 7 7 7 8 11 9 9 12 10 10 8 6 6 5 4
2 3 2 -1 1 -1 -1 2 8 11 7 8 7 5 6 6 5 5 6 6 7 9 9 7 7 5 4 6 6 7 8 12 13 12 12 8 9 10 7 6 6 6 6 5 4
3 4 2 -1 -1 -1 1 5 12 9 8 6 6 6 7 6 6 6 6 7 6 6 8 9 11 6 5 6 8 8 8 11 14 13 11 8 10 10 6 6 5 5 4 4 4
4 -0 0 -1 -1 -1 4 10 10 8 6 7 6 8 8 7 7 6 7 7 6 6 9 9 9 5 5 5 6 8 10 6 9 8 10 10 9 7 6 7 6 6 5 4 5
0 1 1 -1 -1 1 5 9 7 5 5 6 9 7 9 8 8 8 8 6 7 6 6 8 10 6 6 6 6 7 6 10 9 13 13 10 11 10 9 8 7 7 6 6 5
1 3 1 -1 -0 3 8 7 6 5 5 6 8 8 8 8 8 8 8 7 6 6 6 7 7 8 6 7 8 7 8 8 8 9 11 13 12 7 9 8 8 8 7 7 7
2 5 0 -1 5 4 7 6 7 5 4 6 6 7 8 7 8 9 8 7 6 5 7 6 7 9 8 6 6 6 7 7 10 11 9 10 12 6 7 7 7 10 10 9 9
2 3 -0 1 7 6 5 6 5 6 6 6 6 6 6 8 9 8 7 6 5 5 6 6 8 11 10 8 6 7 7 6 7 7 9 11 12 6 7 7 9 10 10 10 10
3 5 3 2 3 5 6 6 7 5 5 5 6 5 6 7 6 7 8 7 6 5 6 5 7 9 11 9 7 8 8 7 7 10 9 9 11 8 7 7 10 10 10 9 10
2 4 4 6 5 5 5 6 7 7 5 5 6 6 7 8 8 8 6 6 6 6 5 5 10 8 8 8 7 8 8 8 8 8 9 10 10 8 7 6 6 9 9 10 10
3 3 3 4 5 5 6 6 7 6 6 7 7 6 6 8 7 8 7 6 7 6 6 5 9 8 9 9 8 9 9 8 7 8 7 8 9 6 5 5 5 5 7 9 8
-0 1 3 5 5 5 6 6 6 6 5 5 6 6 7 6 5 5 4 5 5 6 7 7 7 9 11 9 10 11 9 8 7 7 7 9 8 6 6 5 5 5 4 6 7